Location: Jablonec nad Nisou
(50.7170°N, 15.1830°E)
Time: 04:29:20
(UTC+02:00)

ISS - Pass Details

Date: 26 March 2019
Orbit: 408 x 410 km, 51.6° (Epoch: 20 April)

Event Time Altitude Azimuth Distance (km) Brightness Sun altitude
Rises 19:23:10 0° 245° (WSW) 2,331 0.8 -10.4°
Reaches altitude 10° 19:25:15 10° 242° (WSW) 1,471 -0.3 -10.7°
Maximum altitude 19:28:32 66° 160° (SSE) 450 -3.8 -11.2°
Enters shadow 19:31:00 16° 80° (E) 1,149 -2.1 -11.6°
